PDT,Max TemperatureF,Mean TemperatureF,Min TemperatureF,Max Dew PointF,MeanDew PointF,Min DewpointF,Max Humidity, Mean Humidity, Min Humidity, Max Sea Level PressureIn, Mean Sea Level PressureIn, Min Sea Level PressureIn, Max VisibilityMiles, Mean VisibilityMiles, Min VisibilityMiles, Max Wind SpeedMPH, Mean Wind SpeedMPH, Max Gust SpeedMPH,PrecipitationIn, CloudCover, Events, WindDirDegrees
2013-10-1,78,70,61,60,58,56,90,70,50,29.93,29.90,29.87,10,10,8,16,5,20,0.00,2,,192
2013-10-2,75,70,65,59,57,55,73,65,57,29.97,29.92,29.88,10,10,8,12,6,16,0.00,6,,173
2013-10-3,75,70,64,59,57,55,73,67,61,29.92,29.88,29.83,10,10,10,15,7,20,0.00,6,,179
2013-10-4,91,78,64,58,41,9,78,42,5,30.02,29.93,29.88,10,10,8,24,6,30,0.00,2,,126
2013-10-5,94,83,72,51,24,10,13,9,5,30.10,30.04,30.01,10,10,10,22,13,38,0.00,0,,53
2013-10-6,94,76,58,50,32,12,56,31,5,30.06,30.01,29.94,10,10,10,13,4,18,0.00,1,,278
2013-10-7,81,72,62,59,51,39,61,47,33,29.97,29.93,29.90,10,10,10,13,5,16,0.00,2,,221
2013-10-8,72,67,61,57,55,50,84,69,53,29.93,29.88,29.82,10,10,9,16,6,21,0.00,5,,179
2013-10-9,67,63,58,54,51,47,80,66,52,29.83,29.78,29.73,10,9,2,17,10,25,0.17,7,Rain,199
2013-10-10,70,61,52,52,48,46,86,65,44,30.01,29.95,29.82,10,10,10,14,5,18,0.00,1,,149
2013-10-11,74,64,54,55,52,49,77,61,44,30.04,29.99,29.94,10,10,10,12,3,14,0.00,0,,274
2013-10-12,72,64,56,58,55,52,86,72,57,29.98,29.94,29.90,10,10,7,10,4,16,0.00,2,,212
2013-10-13,71,67,62,56,54,52,78,68,57,30.02,29.97,29.93,10,10,10,14,5,17,0.00,4,,194
2013-10-14,81,68,55,59,54,49,86,61,35,30.02,29.96,29.88,10,10,9,12,3,15,0.00,0,,234
2013-10-15,84,71,57,56,49,36,84,51,18,29.96,29.91,29.86,10,10,7,13,4,16,0.00,0,,211
2013-10-16,86,71,56,48,35,19,72,41,9,30.05,30.00,29.96,10,10,10,13,4,17,0.00,0,,224
2013-10-17,79,68,57,57,47,37,51,42,33,30.03,29.98,29.93,10,10,10,13,3,17,0.00,0,,221
2013-10-18,79,68,56,57,51,46,84,60,35,30.01,29.96,29.92,10,10,9,9,2,14,0.00,0,,237
2013-10-19,79,68,56,59,54,48,84,64,43,30.01,29.98,29.96,10,9,4,12,2,15,0.00,1,,217
2013-10-20,74,67,60,61,58,55,93,75,57,29.99,29.95,29.90,10,5,0,10,4,15,0.00,4,Fog,204
2013-10-21,72,66,59,57,55,53,90,72,53,29.99,29.95,29.91,10,7,4,9,3,12,0.00,3,,225
2013-10-22,72,65,57,57,56,54,90,74,57,30.01,29.97,29.90,10,6,2,10,2,13,0.00,5,,271
2013-10-23,69,66,62,56,54,53,78,71,63,29.98,29.94,29.91,10,8,4,10,4,14,0.00,7,,244
2013-10-24,70,67,63,55,53,52,72,63,53,30.05,30.00,29.96,10,9,5,10,3,15,0.00,6,,248
2013-10-25,72,67,62,57,55,54,78,68,57,30.13,30.06,30.00,8,5,3,8,4,12,0.00,6,,310
2013-10-26,73,66,59,59,57,55,93,75,57,30.09,30.04,29.97,4,3,0,8,2,12,0.00,5,Fog,251
2013-10-27,72,65,57,58,56,53,93,77,61,29.97,29.91,29.83,10,6,0,13,2,15,0.00,5,Fog,213
2013-10-28,67,64,61,55,50,47,78,63,48,29.94,29.87,29.83,10,10,9,16,8,21,T,6,,234
2013-10-29,68,62,55,52,49,45,86,64,42,30.01,29.97,29.93,10,10,10,14,3,18,T,3,Rain,250
2013-10-30,70,62,53,52,49,46,77,61,45,30.06,30.02,29.99,10,10,10,14,3,17,0.00,0,,263
2013-10-31,77,64,51,50,47,44,77,55,33,30.09,30.03,29.98,10,10,10,12,4,15,0.00,0,,217